Location: Unspecified
(34.4950°S, 58.5160°W)
Time: 00:13:56
(UTC+00:00)

Cosmos 2082 - Pass Details

Date: 19 April 2026
Orbit: 834 x 852 km, 71.0° (Epoch: 12 May)

Event Time Altitude Azimuth Distance (km) Brightness Sun altitude
Rises 09:08:32 0° 207° (SSW) 3,447 6.6 -15.5°
Reaches altitude 10° 09:11:03 10° 211° (SSW) 2,506 5.8 -15.0°
Maximum altitude 09:16:39 54° 286° (WNW) 1,038 3.8 -13.8°
Drops below altitude 10° 09:22:11 10° 2° (N) 2,476 6.2 -12.7°
Sets 09:24:39 0° 6° (N) 3,403 7.0 -12.2°
